Погода в Студенке

Россия / Саратовская область     52°06′34″N   43°05′53″E
темп.,
°C
ветер,
м/с
пор.,
м/с
влажн.,
%
обл.,
%
осадки,
мм/ч
давл.,
гПа
погр.,
м
18 апреля, вс
вс1801:00+7з33860 0.0 102062
04:00+6зсз12880 0.0 102012
07:00+6з11880 0.0 101914
10:00+10зюз22670 0.0 1019575
13:00+13ююз335168 0.0 10191652
16:00+14ююз224490 0.1 10181844
19:00+13ююв1148100 0.0 101811
22:00+11з2358100 0.0 101860
19 апреля, пн
пн1901:00+9всв227985 0.1 101841
04:00+8св238596 1.7 101847
07:00+8всв4692100 1.8 1017227
10:00+11в557114 2.4 1017507
13:00+13вюв446079 1.7 10161186
16:00+10в71083100 3.7 1017693
19:00+8в6984100 2.1 1018620
22:00+8в5984100 2.8 1018585
20 апреля, вт
вт2001:00+8в4893100 1.6 1018475
04:00+7в61191100 2.6 1019512
07:00+5в81391100 0.2 1018551
10:00+5вюв7138698 0.4 1019639
13:00+6в91584100 0.0 1018687
16:00+5в101984100 0.8 1016798
19:00+6вюв122288100 4.6 1013863
22:00+6вюв142491100 8.4 1010993
21 апреля, ср
ср2101:00+8юв132487100 3.3 10091062
04:00+8юв122186100 3.4 1008964
07:00+8юв101992100 0.2 1008884
10:00+9ююв81491100 1.6 10091015
13:00+9ю91386100 0.8 10101136
16:00+6юз5987100 1.4 1014769
19:00+7юз5879100 0.0 1017669
22:00+7ююз2486100 0.0 1019114
22 апреля, чт
чт2201:00+7ю3687100 0.0 1019141
04:00+7ю379199 0.1 1020188
07:00+6ю3692100 0.0 1022162
10:00+8ююв4890100 0.3 1022489
13:00+11юв4474100 0.3 1022876
16:00+14ю135959 0.8 10211237
19:00+12з22707 0.9 102179
22:00+9з11826 0.9 102210